Hourly Weather Kozyukovo

Today, 21 October, Wednesday

Time Temperature Precipitation Wind Pressure Humidity
00:00 +4°C° 0 mm 2 mps 754 mmHg 82%
01:00 +4°C° 0 mm 2 mps 754 mmHg 82%
02:00 +3°C° 0 mm 3 mps 754 mmHg 81%
03:00 +3°C° 0 mm 3 mps 753 mmHg 82%
04:00 +3°C° 0 mm 3 mps 752 mmHg 83%
05:00 +3°C° 0 mm 4 mps 751 mmHg 84%
06:00 +3°C° 0.4 mm 4 mps 751 mmHg 85%
07:00 +4°C° 0.4 mm 4 mps 750 mmHg 87%
08:00 +4°C° 0.4 mm 4 mps 750 mmHg 88%
09:00 +4°C° 0.2 mm 4 mps 749 mmHg 88%
10:00 +5°C° 0.2 mm 4 mps 749 mmHg 88%
11:00 +5°C° 0.2 mm 3 mps 749 mmHg 89%
12:00 +5°C° 0 mm 3 mps 749 mmHg 89%
13:00 +7°C° 0 mm 3 mps 749 mmHg 89%
14:00 +7°C° 0 mm 3 mps 749 mmHg 89%
15:00 +7°C° 0 mm 3 mps 748 mmHg 91%
16:00 +7°C° 0 mm 2 mps 748 mmHg 92%
17:00 +7°C° 0 mm 2 mps 748 mmHg 94%
18:00 +7°C° 0 mm 2 mps 749 mmHg 94%
19:00 +7°C° 0 mm 2 mps 749 mmHg 94%
20:00 +7°C° 0 mm 2 mps 749 mmHg 94%
21:00 +6°C° 0 mm 2 mps 749 mmHg 94%
22:00 +6°C° 0 mm 2 mps 749 mmHg 94%
23:00 +6°C° 0 mm 2 mps 748 mmHg 95%

Tomorrow, 22 October, Thursday

Time Temperature Precipitation Wind Pressure Humidity
00:00 +5°C° 0 mm 3 mps 748 mmHg 94%
01:00 +5°C° 0 mm 3 mps 748 mmHg 94%
02:00 +5°C° 0 mm 3 mps 748 mmHg 93%
03:00 +6°C° 0.5 mm 4 mps 747 mmHg 94%
04:00 +6°C° 0.5 mm 4 mps 747 mmHg 94%
05:00 +6°C° 0.5 mm 5 mps 746 mmHg 95%
06:00 +7°C° 0.5 mm 5 mps 746 mmHg 94%
07:00 +7°C° 0.5 mm 5 mps 745 mmHg 93%
08:00 +8°C° 0.5 mm 5 mps 745 mmHg 92%
09:00 +8°C° 0 mm 5 mps 745 mmHg 88%
10:00 +9°C° 0 mm 5 mps 744 mmHg 85%
11:00 +10°C° 0 mm 6 mps 744 mmHg 81%
12:00 +11°C° 0 mm 6 mps 744 mmHg 80%
13:00 +11°C° 0 mm 6 mps 744 mmHg 79%
14:00 +12°C° 0 mm 7 mps 743 mmHg 77%
15:00 +12°C° 0 mm 7 mps 743 mmHg 78%
16:00 +12°C° 0 mm 7 mps 743 mmHg 79%
17:00 +12°C° 0 mm 8 mps 743 mmHg 80%
18:00 +12°C° 0 mm 7 mps 743 mmHg 80%
19:00 +12°C° 0 mm 7 mps 743 mmHg 80%
20:00 +12°C° 0 mm 7 mps 744 mmHg 80%
21:00 +12°C° 0 mm 7 mps 744 mmHg 81%
22:00 +13°C° 0 mm 6 mps 744 mmHg 81%
23:00 +11°C° 0 mm 6 mps 744 mmHg 82%

Day after tomorrow, 23 October, Friday

Time Temperature Precipitation Wind Pressure Humidity
00:00 +11°C° 0 mm 6 mps 745 mmHg 84%
01:00 +12°C° 0 mm 5 mps 745 mmHg 86%
02:00 +10°C° 0 mm 5 mps 745 mmHg 88%
03:00 +10°C° 0 mm 5 mps 745 mmHg 90%
04:00 +10°C° 0 mm 5 mps 745 mmHg 92%
05:00 +10°C° 0 mm 4 mps 745 mmHg 93%
06:00 +10°C° 0 mm 4 mps 744 mmHg 94%
07:00 +10°C° 0 mm 4 mps 744 mmHg 94%
08:00 +10°C° 0 mm 4 mps 744 mmHg 94%
09:00 +10°C° 0.5 mm 5 mps 744 mmHg 93%
10:00 +10°C° 0.5 mm 5 mps 743 mmHg 91%
11:00 +11°C° 0.5 mm 6 mps 743 mmHg 90%
12:00 +12°C° 0.4 mm 5 mps 743 mmHg 90%
13:00 +12°C° 0.4 mm 5 mps 742 mmHg 90%
14:00 +12°C° 0.4 mm 5 mps 742 mmHg 91%
15:00 +12°C° 0.6 mm 5 mps 742 mmHg 90%
16:00 +12°C° 0.6 mm 5 mps 742 mmHg 90%
17:00 +11°C° 0.6 mm 6 mps 742 mmHg 90%
18:00 +12°C° 0.1 mm 5 mps 742 mmHg 89%
19:00 +10°C° 0.1 mm 5 mps 742 mmHg 89%
20:00 +10°C° 0.1 mm 5 mps 742 mmHg 88%
21:00 +9°C° 0 mm 5 mps 743 mmHg 89%
22:00 +10°C° 0 mm 4 mps 743 mmHg 90%
23:00 +8°C° 0 mm 4 mps 743 mmHg 91%

24 October, Saturday

Time Temperature Precipitation Wind Pressure Humidity
00:00 +8°C° 0 mm 4 mps 743 mmHg 92%
01:00 +8°C° 0 mm 4 mps 743 mmHg 93%
02:00 +8°C° 0 mm 3 mps 744 mmHg 93%
03:00 +8°C° 0 mm 3 mps 744 mmHg 92%
04:00 +8°C° 0 mm 3 mps 744 mmHg 90%
05:00 +9°C° 0 mm 3 mps 744 mmHg 89%
06:00 +8°C° 0 mm 3 mps 744 mmHg 91%
07:00 +8°C° 0 mm 3 mps 744 mmHg 93%
08:00 +7°C° 0 mm 3 mps 744 mmHg 96%
09:00 +9°C° 0 mm 3 mps 744 mmHg 92%
10:00 +10°C° 0 mm 3 mps 744 mmHg 87%
11:00 +11°C° 0 mm 3 mps 744 mmHg 83%
12:00 +11°C° 0.1 mm 3 mps 743 mmHg 82%
13:00 +12°C° 0.1 mm 3 mps 743 mmHg 81%
14:00 +13°C° 0.1 mm 3 mps 742 mmHg 79%
15:00 +12°C° 0.6 mm 3 mps 742 mmHg 83%
16:00 +11°C° 0.6 mm 3 mps 742 mmHg 87%
17:00 +11°C° 0.6 mm 3 mps 741 mmHg 91%
18:00 +10°C° 1 mm 4 mps 741 mmHg 91%
19:00 +10°C° 1 mm 4 mps 742 mmHg 90%
20:00 +8°C° 1 mm 5 mps 742 mmHg 89%
21:00 +8°C° 0.2 mm 5 mps 742 mmHg 88%
22:00 +8°C° 0.2 mm 5 mps 742 mmHg 88%
23:00 +8°C° 0.2 mm 5 mps 743 mmHg 87%

25 October, Sunday

Time Temperature Precipitation Wind Pressure Humidity
00:00 +7°C° 0 mm 5 mps 743 mmHg 87%
01:00 +7°C° 0 mm 5 mps 744 mmHg 87%
02:00 +7°C° 0 mm 5 mps 744 mmHg 87%
03:00 +7°C° 0 mm 5 mps 745 mmHg 86%
04:00 +7°C° 0 mm 5 mps 745 mmHg 85%
05:00 +7°C° 0 mm 5 mps 746 mmHg 84%
06:00 +7°C° 0 mm 5 mps 746 mmHg 85%
07:00 +7°C° 0 mm 4 mps 747 mmHg 86%
08:00 +6°C° 0 mm 4 mps 748 mmHg 87%
09:00 +7°C° 0 mm 4 mps 748 mmHg 84%
10:00 +7°C° 0 mm 4 mps 749 mmHg 82%
11:00 +8°C° 0 mm 4 mps 749 mmHg 80%
12:00 +8°C° 0 mm 4 mps 750 mmHg 78%
13:00 +10°C° 0 mm 4 mps 750 mmHg 75%
14:00 +10°C° 0 mm 3 mps 750 mmHg 73%
15:00 +9°C° 0 mm 3 mps 750 mmHg 77%
16:00 +8°C° 0 mm 2 mps 751 mmHg 81%
17:00 +8°C° 0 mm 1 mps 751 mmHg 86%
18:00 +7°C° 0 mm 2 mps 751 mmHg 88%
19:00 +6°C° 0 mm 2 mps 751 mmHg 90%
20:00 +6°C° 0 mm 2 mps 751 mmHg 92%
21:00 +6°C° 0 mm 2 mps 752 mmHg 93%
22:00 +6°C° 0 mm 2 mps 752 mmHg 93%
23:00 +5°C° 0 mm 2 mps 752 mmHg 94%

26 October, Monday

Time Temperature Precipitation Wind Pressure Humidity
00:00 +4°C° 0 mm 3 mps 752 mmHg 94%
01:00 +4°C° 0 mm 3 mps 752 mmHg 93%
02:00 +4°C° 0 mm 3 mps 752 mmHg 93%
03:00 +4°C° 0 mm 3 mps 752 mmHg 93%
04:00 +4°C° 0 mm 3 mps 752 mmHg 92%
05:00 +4°C° 0 mm 3 mps 752 mmHg 92%
06:00 +4°C° 0 mm 3 mps 752 mmHg 91%
07:00 +4°C° 0 mm 4 mps 752 mmHg 90%
08:00 +4°C° 0 mm 4 mps 752 mmHg 89%
09:00 +5°C° 0 mm 4 mps 752 mmHg 83%
10:00 +7°C° 0 mm 4 mps 752 mmHg 77%
11:00 +8°C° 0 mm 5 mps 752 mmHg 71%
12:00 +9°C° 0 mm 5 mps 752 mmHg 69%
13:00 +9°C° 0 mm 5 mps 752 mmHg 67%
14:00 +10°C° 0 mm 5 mps 752 mmHg 65%
15:00 +10°C° 0 mm 4 mps 752 mmHg 70%
16:00 +8°C° 0 mm 4 mps 751 mmHg 74%
17:00 +8°C° 0 mm 3 mps 751 mmHg 79%
18:00 +6°C° 0 mm 4 mps 751 mmHg 80%
19:00 +6°C° 0 mm 4 mps 751 mmHg 81%
20:00 +6°C° 0 mm 4 mps 751 mmHg 82%
21:00 +5°C° 0 mm 4 mps 751 mmHg 84%
22:00 +5°C° 0 mm 4 mps 751 mmHg 86%
23:00 +5°C° 0 mm 4 mps 751 mmHg 88%

27 October, Tuesday

Time Temperature Precipitation Wind Pressure Humidity
00:00 +5°C° 0 mm 4 mps 751 mmHg 89%
01:00 +5°C° 0 mm 4 mps 751 mmHg 90%
02:00 +5°C° 0 mm 4 mps 751 mmHg 91%
03:00 +4°C° 0 mm 4 mps 751 mmHg 91%
04:00 +4°C° 0 mm 4 mps 751 mmHg 91%
05:00 +4°C° 0 mm 4 mps 751 mmHg 91%
06:00 +4°C° 0 mm 4 mps 751 mmHg 90%
07:00 +4°C° 0 mm 4 mps 751 mmHg 89%
08:00 +3°C° 0 mm 5 mps 751 mmHg 88%
09:00 +5°C° 0 mm 5 mps 752 mmHg 83%
10:00 +7°C° 0 mm 5 mps 752 mmHg 78%
11:00 +8°C° 0 mm 5 mps 752 mmHg 72%
12:00 +8°C° 0 mm 5 mps 752 mmHg 70%
13:00 +9°C° 0 mm 5 mps 752 mmHg 69%
14:00 +10°C° 0 mm 5 mps 752 mmHg 67%
15:00 +10°C° 0 mm 4 mps 752 mmHg 69%
16:00 +10°C° 0 mm 4 mps 752 mmHg 72%
17:00 +9°C° 0 mm 3 mps 752 mmHg 74%
18:00 +9°C° 0 mm 3 mps 752 mmHg 75%
19:00 +9°C° 0 mm 3 mps 753 mmHg 76%
20:00 +9°C° 0 mm 3 mps 753 mmHg 77%
21:00 +9°C° 0 mm 3 mps 753 mmHg 78%
22:00 +9°C° 0 mm 3 mps 753 mmHg 78%
23:00 +9°C° 0 mm 3 mps 753 mmHg 79%
Show more